Location: M?digepalle
(16.1753°N, 80.3496°E)
Time: 09:09:09
(UTC+00:00)

CZ-2C R/B - Pass Details

Date: 29 October 2020
Orbit: 703 x 909 km, 98.1° (Epoch: 28 November)

Event Time Altitude Azimuth Distance (km) Brightness Sun altitude
Rises 14:03:26 0° 179° (S) 3,511 6.5 -27.7°
Reaches altitude 10° 14:05:54 10° 184° (S) 2,580 5.8 -28.3°
Maximum altitude 14:11:31 51° 259° (W) 1,128 4.1 -29.6°
Drops below altitude 10° 14:17:06 10° 334° (NNW) 2,566 5.9 -30.9°
Sets 14:19:33 0° 340° (NNW) 3,490 6.6 -31.5°
